Preview of NWS' New Version of Forecast
This preview is not operational and should not be used for support decisions.
Latest weather observations around

Allen County Airport (KK88)

Using International System of Units (Switch to English Units)
Date/ Time (CDT) Wind (kph) Vis. (km) Weather Sky Cond. Temp (°C) Rel. Humidity Wind Chill (°C) Heat Index (°C) Pressure Precip. (cm)
Air Dwpt 6 hour Altimeter (hPa) Sea level (hPa) 1 hr 3 hr 6 hr
Max Min
Aug 25 12:55 SW 11 16.09 Clear   22 20     88%   23 1012.19        
Aug 25 12:35 SSW 9 16.09 Clear   21 20     93%   22 1012.53        
Aug 25 12:15 SSW 9 16.09 Clear   21 21     99%     1012.87        
Aug 25 11:55 SW 7 16.09 Clear   20 20     99%              
Aug 25 11:35 WSW 9 16.09 Clear   20 20     100%              
Aug 25 11:15 SW 7 16.09 Clear   20 20     100%              
Aug 25 10:55 WSW 7 16.09 Mostly Cloudy SCT006 SCT026 BKN034 19 19     100%              
Aug 25 10:35 SSE 6 16.09 Clear   19 19     100%     1012.19        
Aug 25 10:15 ESE 13 16.09 Clear   19 19     100%     1012.19        
Aug 25 09:55 E 19 16.09 Clear   19 19     100%     1011.85        
Aug 25 09:35 SE 11 11.27 Clear   19 19     100%     1012.53        
Aug 25 09:15 SE 15 8.05 Mostly Cloudy SCT037 SCT045 BKN065 19 19     100%     1012.87   0    
Aug 25 08:55 ESE 13 16.09 Mostly Cloudy SCT034 BKN043 BKN050 19 19     100%     1012.87   0    
Aug 25 08:35 ESE 11 6.44 Clear   18 18     100%     1012.87        
Aug 25 08:15 ESE 7 6.44 Clear   18 18     100%     1013.21        
Aug 25 07:55 ESE 6 4.02 Clear   18 18     100%     1013.21        
Aug 25 07:35 SSE 9 8.05 Clear   18 18     100%              
Aug 25 07:15 SSE 6 11.27 Clear   18 18     100%     1013.55        
Aug 25 06:55 S 11 11.27 Clear   18 18     100%              
Aug 25 06:35 S 9 3.22 Cloudy SCT005 BKN013 OVC020 19 19     100%         1    
Aug 25 06:15 SSW 6 2.01 Cloudy SCT008 BKN012 OVC026 19 19     100%     1013.21   0    
Aug 25 06:00 Calm 2.82 Clear   19 19     100%              
Aug 25 05:35 SSE 13 4.02 Clear   21 21     100%     1012.87        
Aug 25 05:15 SE 15 4.02 Clear   21 21     100%     1012.87        
Aug 25 04:55 SSE 13 3.22 Cloudy OVC004 20 20     100%     1013.55        
Aug 25 04:35 ESE 17 3.22 Clear   21 20     99%     1013.21        
Aug 25 04:15 SE 17 8.05 Clear   21 20     98%     1013.55        
Aug 25 03:55 ESE 17 8.05 Clear   21 20     98%     1014.22        
Aug 25 03:35 SE 17 16.09 Clear   21 20     98%     1013.88        
Aug 25 03:15 ESE 15 16.09 Clear   21 20     97%     1014.22        
Aug 25 02:55 ESE 15 16.09 Clear   21 20     97%     1014.56        
Aug 25 02:35 ESE 15 16.09 Clear   21 20     96%     1014.56        
Aug 25 02:15 ESE 13 16.09 Clear   20 20     96%     1014.56        
Aug 25 01:55 E 13 16.09 Cloudy OVC008 20 20     96%     1014.9        
Aug 25 01:35 E 9 16.09 Clear   20 19     95%     1014.9        
Aug 25 01:15 E 9 16.09 Clear   20 19     95%     1015.24        
Aug 25 00:55 E 15 16.09 Clear   20 19     94%     1015.24        
Aug 25 00:35 E 17 16.09 Cloudy OVC010 20 19     93%     1015.58        
Aug 25 00:15 E 11 16.09 Clear   20 19     93%     1015.92        
Aug 24 23:55 E 11 16.09 Clear   20 19     92%     1016.26        
Aug 24 23:35 E 11 16.09 Clear   20 19     91%     1016.59        
Aug 24 23:15 E 11 16.09 Clear   20 18     91%     1016.59        
Aug 24 22:55 E 15 16.09 Cloudy OVC014 20 18     89%     1016.59        
Aug 24 22:35 E 9 16.09 Clear   20 18     88%     1016.59        
Aug 24 22:15 ENE 13 16.09 Clear   20 19     90%     1016.59        
Aug 24 21:55 ENE 11 16.09 Clear   21 19     92%     1016.59        
Aug 24 21:35 E 13 16.09 Clear   21 20     94%     1016.59        
Aug 24 21:15 ENE 9 16.09 Clear   21 20     94%     1016.93        
Aug 24 20:55 ENE 11 16.09 Clear   21 20     94%     1016.93        
Aug 24 20:35 ENE 13 16.09 Clear   21 20     94%     1016.59        
Aug 24 20:15 ENE 13 16.09 Clear   21 19     93%     1016.26        
Aug 24 19:55 ENE 20 16.09 Clear   21 20     93%     1016.26        
Aug 24 19:35 ENE 19 16.09 Clear   21 19     91%     1016.26        
Aug 24 19:15 E 19 16.09 Cloudy OVC010 21 20     90%   22 1016.26        
Aug 24 18:55 E 17 16.09 Clear   22 20     89%   22 1016.26        
Aug 24 18:35 E 17 16.09 Cloudy OVC012 22 20     88%   22 1016.26        
Aug 24 18:15 ENE 15 16.09 Cloudy OVC012 22 20     87%   22 1016.59        
Aug 24 17:55 ENE 15 16.09 Clear   22 20     86%   22 1016.59        
Aug 24 17:35 E 17 16.09 Clear   22 19     85%   23 1016.26        
Aug 24 17:15 ENE 20 16.09 Clear   23 20     82%   23 1016.26        
Aug 24 16:55 ENE 22 16.09 Cloudy OVC015 23 20     82%   23 1015.92        
Aug 24 16:35 ENE 17 16.09 Cloudy OVC015 23 20     82%   23 1016.26        
Aug 24 16:15 ENE 15 16.09 Cloudy OVC015 23 20     83%   23 1016.26        
Aug 24 15:55 E 11 16.09 Clear   23 20     84%   23 1016.59        
Aug 24 15:35 ESE 17 16.09 Clear   23 19     82%   23 1016.59        
Aug 24 15:15 ESE 11 16.09 Cloudy OVC017 23 20     81%   24 1016.59        
Aug 24 14:55 E 15 16.09 Clear   24 20     79%   24 1016.59        
Aug 24 14:35 E 13 16.09 Clear   24 20     79%   24 1016.93        
Aug 24 14:15 E 19 16.09 Clear   23 20     79%   24 1017.27        
Aug 24 13:55 ESE 15 16.09 Clear   23 19     80%   24 1017.27        
Aug 24 13:35 E 20 16.09 Clear   24 20     80%   24 1016.93        
Aug 24 13:15 E 17 16.09 Clear   23 20     82%   23 1017.27        
Aug 24 12:55 E 15 16.09 Cloudy OVC013 23 20     83%   23 1017.27        
Aug 24 12:35 ESE 13 16.09 Clear   22 20     87%   23 1017.95        
Aug 24 12:15 E 17 16.09 Clear   22 20     87%   23 1017.95        
Aug 24 11:55 E 19 16.09 Clear   22 20     89%   22 1017.95        
Aug 24 11:40 ENE 19 16.09 Clear   21 20     90%   22 1017.95        
Aug 24 11:15 E 19 16.09 Clear   21 20     92%     1017.95        
Aug 24 10:55 E 13 16.09 Partly Cloudy SCT006 21 20     95%     1017.95        
Aug 24 10:35 E 17 16.09 Clear   21 20     95%     1017.95        
Aug 24 10:15 ENE 19 16.09 Clear   21 20     96%     1017.95        
Aug 24 09:55 ENE 17 16.09 Clear   21 20     96%     1017.95        
Aug 24 09:35 E 20 16.09 Cloudy OVC008 21 20     96%     1017.95        
Aug 24 09:15 E 20 16.09 Clear   21 20     97%     1017.95        
Aug 24 08:55 E 19 16.09 Clear   21 20     97%              
Aug 24 08:35 ENE 15 16.09 Cloudy OVC008 21 21     97%     1017.95        
Aug 24 08:15 E 17 16.09 Cloudy OVC008 21 21     97%     1017.95        
Aug 24 07:55 ENE 15 16.09 Clear   21 21     97%     1017.95        
Aug 24 07:35 ENE 9 16.09 Clear   21 21     98%              
Aug 24 07:15 ENE 11 16.09 Cloudy BKN008 OVC017 21 21     97%     1017.95        
Aug 24 06:55 ENE 13 16.09 Clear   21 20     98%     1017.95        
Aug 24 06:35 ENE 13 16.09 Cloudy BKN008 OVC013 21 21     98%     1017.95        
Aug 24 06:15 ENE 9 16.09 Clear   21 21     98%     1017.95        
Aug 24 05:55 ENE 11 16.09 Clear   21 21     99%   22 1017.95        
Aug 24 05:35 ENE 6 16.09 Clear   21 21     98%   22 1017.95        
Aug 24 05:15 ENE 11 16.09 Clear   21 21     99%   22 1017.61        
Aug 24 04:55 ENE 11 16.09 Clear   21 21     99%   22 1017.61        
Aug 24 04:40 E 9 16.09 Cloudy OVC008 21 21     99%   22 1017.61        
Aug 24 04:15 E 7 16.09 Clear   21 21     99%   22 1017.95        
Aug 24 03:55 ENE 11 16.09 Clear   21 21     99%     1017.61        
Aug 24 03:35 E 13 16.09 Clear   21 21     100%     1017.61        
Aug 24 03:15 E 7 16.09 Clear   21 21     100%     1017.61        
Aug 24 03:00 E 9 16.09 Partly Cloudy SCT008 SCT031 21 21     99%     1017.61        
Aug 24 02:35 E 7 16.09 Clear   21 21     98%     1017.61        
Aug 24 02:15 E 9 16.09 Clear   21 21     98%     1017.95        
Aug 24 01:55 E 7 16.09 Clear   21 20     98%     1017.95        
Aug 24 01:35 Calm 16.09 Clear   21 20     98%     1018.29        
Aug 24 01:15 ENE 6 16.09 Partly Cloudy SCT065 SCT080 21 20     97%     1018.29        
Aug 24 00:55 ENE 6 16.09 Clear   21 20     96%     1017.95        
Aug 24 00:35 E 7 16.09 Partly Cloudy SCT055 21 20     96%     1017.27        
Aug 24 00:15 E 9 16.09 Clear   21 20     96%     1017.61        
Aug 23 23:55 E 13 16.09 Clear   21 20     97%              
Aug 23 23:35 ENE 13 16.09 Clear   21 20     96%     1016.93        
Aug 23 23:15 E 9 16.09 Clear   21 21     95%   22 1017.27        
Aug 23 22:55 E 13 16.09 Clear   22 20     94%   22 1017.61        
Aug 23 22:35 E 13 16.09 Clear CLR 22 21     94%   22 1017.61        
Aug 23 22:15 E 9 16.09 Clear   22 21     93%   22 1017.61        
Aug 23 21:55 ENE 11 16.09 Clear   22 21     92%   23 1017.61        
Aug 23 21:35 ENE 9 16.09 Clear   22 21     93%   23          
Aug 23 21:15 NE 6 16.09 Clear   22 21     95%   23 1017.61        
Aug 23 20:55 E 6 16.09 Partly Cloudy SCT030 SCT038 22 21     92%   23          
Aug 23 20:35 Calm 16.09 Clear   22 21     92%   23 1017.27        
Aug 23 20:15 Calm 16.09 Clear   23 21     88%   23 1016.93        
Aug 23 19:55 E 6 16.09 Clear   24 21     83%   24 1016.59        
Aug 23 19:35 E 7 16.09 Clear   25 20     77%   25 1016.59        
Aug 23 19:15 E 11 16.09 Clear   25 20     75%   26 1016.26        
Aug 23 18:55 E 17 16.09 Clear   26 20     73%   26 1016.59        
Aug 23 18:35 E 13 16.09 Clear   26 20     69%   26 1016.59        
Aug 23 18:15 E 13 16.09 Clear   26 20     70%   26 1016.59        
Aug 23 17:55 ESE 17 16.09 Clear   26 20     71%   27 1016.59        
Aug 23 17:35 E 19 16.09 Clear   27 21     70%   29 1016.59        
Aug 23 17:15 ESE 15 16.09 Partly Cloudy SCT025 26 21     70%   28 1016.26        
Aug 23 16:55 ESE 19 16.09 Clear   27 21     69%   29          
Aug 23 16:35 ESE 15 16.09 Clear CLR 27 21     71%   29 1015.92        
Aug 23 16:15 ESE 17 16.09 Clear   27 21     71%   28 1015.92        
Aug 23 15:55 ESE 19 16.09 Clear   26 21     75%   26 1016.26        
Aug 23 15:35 ESE 20 16.09 Clear   27 22     74%   29 1016.26        
Aug 23 15:15 ENE 11 16.09 Clear   27 22     73%   29 1016.59        
Aug 23 14:55 ENE 13 16.09 Mostly Cloudy SCT025 SCT029 BKN035 27 22     71%   29 1016.59        
Aug 23 14:35 E 13 16.09 Clear   27 21     71%   29 1016.59        
Aug 23 14:15 E 7 16.09 Partly Cloudy SCT021 SCT040 SCT048 27 22     72%   29 1016.93        
Aug 23 13:55 NE 6 16.09 Clear   26 22     79%   26 1017.27        
Aug 23 13:35 E 7 16.09 Clear   25 22     83%   26 1017.27        
Aug 23 13:15 E 7 16.09 Clear   25 22     85%   26 1017.27        
Aug 23 12:55 NE 7 16.09 Clear   25 22     83%   25 1017.95        
Aug 23 12:35 Calm 16.09 Clear   24 22     85%   25 1017.95        
Aug 23 12:15 Calm 16.09 Clear   24 22     89%   24 1018.29        
Aug 23 11:55 SE 9 16.09 Clear   24 21     83%   25 1018.29        
Aug 23 11:35 Calm 16.09 Clear   24 21     82%   25          
Aug 23 11:15 SE 6 16.09 Clear   24 20     81%   24 1018.29        
Aug 23 10:55 SE 6 16.09 Cloudy SCT017 OVC024 24 21     83%   25          
Aug 23 10:35 E 7 16.09 Clear   24 21     82%   25 1017.61        
Aug 23 10:15 ESE 7 16.09 Clear   24 21     83%   25 1017.61        
Aug 23 09:55 ESE 7 16.09 Clear   24 22     89%   24          
Aug 23 09:35 Calm 16.09 Cloudy SCT007 OVC043 23 22     95%   24 1017.27        
Aug 23 09:15 E 9 16.09 Cloudy SCT007 BKN011 OVC040 23 23     99%   24 1017.27        
Aug 23 08:55 E 9 16.09 Cloudy BKN007 BKN018 OVC038 22 22     99%   23 1016.93        
Aug 23 08:35 E 7 16.09 Mostly Cloudy BKN007 BKN036 22 22     100%   23 1016.93        
Aug 23 08:15 E 13 16.09 Clear   22 22     100%   23 1016.59        
Aug 23 07:55 E 11 16.09 Clear   22 22     100%   23 1016.59        
Aug 23 07:35 E 9 16.09 Mostly Cloudy SCT011 SCT027 BKN036 22 22     100%   22 1016.59        
Aug 23 07:15 E 9 16.09 Clear   22 22     100%   22 1016.93        
Aug 23 06:55 ENE 7 16.09 Clear   22 22     100%   22          
Aug 23 06:35 ENE 6 16.09 Clear   21 21     100%   22          
Aug 23 06:15 NE 7 16.09 Mostly Cloudy SCT004 SCT014 BKN031 21 21     100%   22 1016.59        
Aug 23 05:55 ENE 6 16.09 Clear CLR 21 21     100%              
Aug 23 05:35 E 6 16.09 Clear   21 21     100%   22          
Aug 23 05:15 E 6 16.09 Clear   21 21     99%     1015.92        
Aug 23 04:55 E 6 16.09 Clear   21 21     99%   22          
Aug 23 04:35 ENE 6 16.09 Clear   21 21     99%   22 1015.24        
Aug 23 04:15 E 11 16.09 Clear CLR 21 21     99%   22 1014.9        
Aug 23 03:55 E 13 16.09 Clear   21 21     99%   22 1014.9        
Aug 23 03:35 NE 9 16.09 Clear   21 21     100%     1014.9        
Aug 23 03:15 NE 9 16.09 Clear   21 21     99%              
Aug 23 02:55 NNE 9 16.09 Clear   21 21     99%   22          
Aug 23 02:35 NE 7 16.09 Clear   22 21     98%   22 1015.24        
Aug 23 02:15 NE 11 16.09 Clear   22 21     98%   22 1015.24        
Aug 23 01:55 NE 7 16.09 Clear   22 21     97%   22 1015.58        
Aug 23 01:35 ENE 7 16.09 Clear   22 21     96%   23 1015.92        
Aug 23 01:15 ENE 7 16.09 Cloudy BKN060 OVC120 22 22     97%   23 1016.26        
Aug 23 00:55 ENE 6 16.09 Clear   22 21     95%   23          
Aug 23 00:35 E 6 16.09 Clear   22 22     96%   23 1016.26        
Aug 23 00:15 Calm 16.09 Clear   22 22     96%   23 1016.26        
Aug 22 23:55 Calm 16.09 Clear   22 22     96%   23 1015.92        
Aug 22 23:35 E 6 16.09 Clear   23 22     96%   23 1015.58        
Aug 22 23:15 E 6 16.09 Clear   23 22     97%   23 1015.92        
Aug 22 22:55 ENE 7 16.09 Clear   23 22     97%   23 1015.58        
Aug 22 22:35 NE 7 16.09 Clear   23 22     96%   23 1015.58        
Aug 22 22:15 NNE 6 16.09 Clear   23 22     96%   23 1015.58        
Aug 22 21:55 NNE 7 16.09 Clear   23 22     96%   23 1015.58        
Aug 22 21:35 NNE 6 16.09 Clear CLR 23 22     96%   24 1015.92        
Aug 22 21:15 Calm 16.09 Clear   23 22     94%   23 1015.58        
Aug 22 20:55 ENE 6 16.09 Clear CLR 23 22     92%   24          
Aug 22 20:35 N 7 16.09 Clear   23 21     91%   24 1014.9        
Aug 22 20:15 E 6 16.09 Clear   24 21     87%   24 1014.9        
Aug 22 19:55 E 6 16.09 Clear CLR 24 21     85%   25          
Aug 22 19:35 E 9 16.09 Clear   24 21     83%   25 1013.88        
Aug 22 19:15 ESE 9 16.09 Clear   25 21     81%   25 1013.55        
Aug 22 18:55 E 6 16.09 Clear   25 22     81%   26 1013.88        
Aug 22 18:35 ENE 6 16.09 Clear   25 21     79%   26 1014.22        
Aug 22 18:15 Calm 16.09 Clear   25 21     79%   26 1014.56        
Aug 22 17:55 E 6 16.09 Clear   25 21     77%   26 1014.56        
Aug 22 17:35 Calm 16.09 Clear   26 21     74%   26 1014.9        
Aug 22 17:15 Calm 16.09 Clear   26 21     76%   26 1015.24        
Aug 22 16:55 Calm 16.09 Clear   26 21     75%   27 1015.58        
Aug 22 16:35 E 6 16.09 Cloudy SCT020 BKN025 OVC043 26 21     74%   27 1015.58        
Aug 22 16:15 S 9 16.09 Clear   26 22     77%   28 1015.58        
Aug 22 15:55 S 7 16.09 Clear   25 21     79%   26 1015.58        
Aug 22 15:35 SSE 7 16.09 Clear   26 21     75%   26 1015.58        
Aug 22 15:15 ENE 7 16.09 Clear   26 22     80%   26 1015.58        
Aug 22 14:55 ENE 11 16.09 Clear   25 22     82%   25 1015.58        
Aug 22 14:35 ENE 9 16.09 Clear   24 21     83%   25 1015.92        
Aug 22 14:15 NE 6 16.09 Clear   24 21     81%   25 1016.26        
Aug 22 13:55 ENE 6 16.09 Clear   24 21     79%   25 1016.26        
Aug 22 13:35 E 6 16.09 Clear   24 21     82%   25 1016.26        
Aug 22 13:15 E 9 16.09 Clear   24 21     83%   25 1016.26        
May 15 11:15 W 13 16.09 Clear   22 17     72%   23 1016.26        
May 15 05:35 Calm 16.09 Clear   16 16     97%     1012.87        
Notice The following observation data may not be complete
May 14 16:15   4.83 Clear     14      %     1010.16        
May 14 13:35 SSW 11 16.09 Clear   29 20     58%   31 1013.21        
May 14 06:15 SSE 13 16.09 Clear   21 18     81%     1013.21        
May 14 01:55 Calm 16.09 Clear   21 17     80%     1014.56        
May 13 23:15 Calm 16.09 Clear   22 17     73%   22 1015.24        
May 13 12:15 S 30 16.09 Clear   29 19     56%   31 1015.58        
May 13 09:55 S 24 16.09 Clear   25 19     72%   25 1015.92        
May 13 01:15 S 19 16.09 Clear   22 18     76%   22 1014.9        
May 12 18:35 S 19 16.09 Clear   27 19     63%   28 1012.53        
May 12 13:15 S 31 16.09 Clear   27 19     60%   28 1012.87        
May 12 05:15 SSE 19 16.09 Clear   21 16     72%   21 1010.5        
May 12 03:15 SSE 15 16.09 Clear   21 16     74%   21 1011.18        
May 11 08:35   16.09 Clear   21 15     69%   21 1007.79